N1VL Weather Reports


Display with metric or nautical units.
time (UTC)temp
F
wind
direction
speed
MPH
gust
MPH
rain 1hr
in
rain 24hr
in
rain mn
in
humidity
%
barometer
mb
20260506043624 50 114 4.0 5.0 0.00 0.00 0.00 56 1012.4
20260506042703 50 119 3.0 5.0 0.00 0.00 0.00 56 1012.5
20260506041803 50 120 2.0 6.0 0.00 0.00 0.00 57 1012.4
20260506040903 50 119 3.0 6.0 0.00 0.00 0.00 57 1012.4
20260506040003 50 99 2.0 5.0 0.00 0.00 0.00 58 1012.5
20260506035424 51 51 2.0 5.0 0.00 0.00 0.00 58 1012.4
20260506034503 51 52 4.0 5.0 0.00 0.00 0.00 58 1012.3
20260506033603 52 51 4.0 5.0 0.00 0.00 0.00 58 1012.2
20260506032703 52 51 3.0 5.0 0.00 0.00 0.00 58 1012.2
20260506031803 53 51 3.0 5.0 0.00 0.00 0.00 58 1012.1
20260506030903 53 51 4.0 5.0 0.00 0.00 0.00 57 1012.0
20260506030003 53 87 3.0 5.0 0.00 0.00 0.00 58 1011.9
20260506025424 53 97 2.0 4.0 0.00 0.00 0.00 58 1011.9
20260506024503 54 97 1.0 4.0 0.00 0.00 0.00 57 1011.9
20260506023603 54 97 1.0 7.0 0.00 0.00 0.00 56 1011.8
20260506022703 55 98 3.0 7.0 0.00 0.00 0.00 56 1011.7
20260506021803 56 99 4.0 7.0 0.00 0.00 0.00 55 1011.6
20260506020903 56 101 4.0 7.0 0.00 0.00 0.00 54 1011.5
20260506020003 57 113 5.0 9.0 0.00 0.00 0.00 53 1011.4
20260506015403 57 117 4.0 9.0 0.00 0.00 0.00 52 1011.4
20260506014503 58 117 4.0 9.0 0.00 0.00 0.00 51 1011.5
20260506013603 58 98 5.0 9.0 0.00 0.00 0.00 50 1011.3
20260506012703 58 106 6.0 9.0 0.00 0.00 0.00 50 1011.4
20260506011803 59 123 7.0 10.0 0.00 0.00 0.00 49 1011.4
20260506010903 59 118 5.0 10.0 0.00 0.00 0.00 47 1011.4
20260506010003 60 117 5.0 10.0 0.00 0.00 0.00 47 1011.4
20260506005424 60 104 5.0 9.0 0.00 0.00 0.00 47 1011.3
20260506004524 60 92 5.0 9.0 0.00 0.00 0.00 46 1011.3
20260506003603 60 102 3.0 8.0 0.00 0.00 0.00 46 1011.3
20260506002703 61 98 6.0 8.0 0.00 0.00 0.00 45 1011.3
20260506001803 62 117 4.0 8.0 0.00 0.00 0.00 45 1011.3
20260506000903 62 106 5.0 8.0 0.00 0.00 0.00 45 1011.4
20260506000003 62 114 3.0 8.0 0.00 0.00 0.00 46 1011.3
20260505235403 61 125 4.0 8.0 0.00 0.00 0.00 46 1011.4
20260505234503 60 128 4.0 8.0 0.00 0.00 0.00 47 1011.4
20260505233624 59 144 5.0 9.0 0.00 0.00 0.00 49 1011.5
20260505232703 58 142 3.0 9.0 0.00 0.00 0.00 50 1011.6
20260505231803 57 147 2.0 6.0 0.00 0.00 0.00 52 1011.7
20260505230903 57 146 4.0 7.0 0.00 0.00 0.00 54 1011.7
20260505230003 56 118 2.0 7.0 0.00 0.00 0.00 55 1011.8
20260505225403 56 118 3.0 7.0 0.00 0.00 0.00 54 1011.7
20260505224524 56 192 1.0 5.0 0.00 0.00 0.00 53 1011.8
20260505223603 56 200 1.0 6.0 0.00 0.00 0.00 52 1012.1
20260505222703 56 190 1.0 5.0 0.00 0.00 0.00 50 1012.2
20260505221824 56 359 1.0 5.0 0.00 0.00 0.00 51 1012.3
20260505220903 57 72 2.0 5.0 0.00 0.00 0.00 49 1012.4
20260505220003 57 82 2.0 5.0 0.00 0.00 0.00 50 1012.3
20260505215403 56 96 3.0 8.0 0.00 0.00 0.00 50 1012.3
20260505214503 56 111 3.0 8.0 0.00 0.00 0.00 50 1012.4
20260505213603 56 118 5.0 8.0 0.00 0.00 0.00 52 1012.4
20260505212703 56 115 4.0 11.0 0.00 0.00 0.00 52 1012.4
20260505211803 57 111 4.0 9.0 0.00 0.00 0.00 49 1012.5
20260505210903 57 106 5.0 9.0 0.00 0.00 0.00 48 1012.5
20260505210003 57 113 5.0 10.0 0.00 0.00 0.00 47 1012.5
20260505205403 57 115 6.0 10.0 0.00 0.00 0.00 47 1012.6
20260505204503 58 84 4.0 9.0 0.00 0.00 0.00 47 1012.6
20260505203603 58 91 5.0 9.0 0.00 0.00 0.00 48 1012.6
20260505202703 58 106 7.0 12.0 0.00 0.00 0.00 47 1012.6
20260505201824 57 87 6.0 10.0 0.00 0.00 0.00 49 1012.7
20260505200903 57 93 7.0 11.0 0.00 0.00 0.00 50 1012.8
20260505200003 56 100 7.0 11.0 0.00 0.00 0.00 50 1012.8
20260505195403 56 101 6.0 10.0 0.00 0.00 0.00 52 1012.8
20260505194521 55 89 6.0 10.0 0.00 0.00 0.00 52 1012.8
20260505193621 55 97 6.0 11.0 0.00 0.00 0.00 52 1012.9
20260505192700 55 86 6.0 14.0 0.00 0.00 0.00 53 1012.9
20260505191800 55 88 8.0 14.0 0.00 0.00 0.00 52 1013.0
20260505190921 55 104 6.0 12.0 0.00 0.00 0.00 52 1013.0
20260505190021 55 97 7.0 12.0 0.00 0.00 0.00 52 1013.0
20260505185400 56 78 7.0 11.0 0.00 0.00 0.00 53 1013.1
20260505184521 55 87 8.0 14.0 0.00 0.00 0.00 53 1013.1
20260505183621 55 89 8.0 14.0 0.00 0.00 0.00 54 1013.1
20260505182700 54 80 7.0 13.0 0.00 0.00 0.00 54 1013.1
20260505181800 54 92 7.0 13.0 0.00 0.00 0.00 54 1013.1
20260505180900 54 92 7.0 14.0 0.00 0.00 0.00 55 1013.1
20260505180000 53 87 8.0 15.0 0.00 0.00 0.00 55 1013.2
20260505175400 53 87 8.0 15.0 0.00 0.00 0.00 55 1013.3
20260505174500 53 79 8.0 15.0 0.00 0.00 0.00 55 1013.3
20260505173621 53 84 10.0 15.0 0.00 0.00 0.00 55 1013.2
20260505172700 53 80 8.0 14.0 0.00 0.00 0.00 56 1013.3
20260505171800 52 81 9.0 15.0 0.00 0.00 0.00 56 1013.3
20260505170900 52 78 8.0 15.0 0.00 0.00 0.00 56 1013.3
20260505170000 52 67 10.0 19.0 0.00 0.00 0.00 56 1013.4
20260505165421 51 69 10.0 19.0 0.00 0.00 0.00 56 1013.3
20260505164500 51 66 11.0 19.0 0.00 0.00 0.00 56 1013.3
20260505163600 51 70 10.0 18.0 0.00 0.00 0.00 56 1013.3
20260505162700 51 69 10.0 19.0 0.00 0.00 0.00 56 1013.3
20260505161800 51 71 11.0 21.0 0.00 0.00 0.00 56 1013.2
20260505160900 51 74 12.0 22.0 0.00 0.00 0.00 56 1013.2
20260505152700 51 81 10.0 16.0 0.00 0.00 0.00 56 1012.9
20260505151800 51 78 10.0 20.0 0.00 0.00 0.00 56 1012.9
20260505150900 51 79 11.0 20.0 0.00 0.00 0.00 57 1012.9
20260505124500 55 88 10.0 15.0 0.00 0.00 0.00 54 1011.0
20260505123600 54 94 7.0 20.0 0.00 0.00 0.00 50 1010.9
20260505122721 54 113 4.0 9.0 0.00 0.00 0.00 50 1010.7
20260505121800 54 114 4.0 10.0 0.00 0.00 0.00 50 1010.8
20260505120900 54 120 5.0 10.0 0.00 0.00 0.00 51 1010.9
20260505120000 54 129 6.0 10.0 0.00 0.00 0.00 52 1010.8
20260505115400 54 130 5.0 8.0 0.00 0.00 0.00 53 1010.8
20260505114500 55 126 6.0 9.0 0.00 0.00 0.00 53 1010.9
20260505113600 54 115 4.0 13.0 0.00 0.00 0.00 52 1010.9
20260505112700 54 89 7.0 13.0 0.00 0.00 0.00 51 1010.9
20260505111800 54 70 6.0 11.0 0.00 0.00 0.00 49 1010.7
20260505110900 54 83 4.0 9.0 0.00 0.00 0.00 46 1010.7
20260505101800 56 64 5.0 7.0 0.00 0.00 0.00 52 1010.9
20260505100900 56 97 4.0 7.0 0.00 0.00 0.00 53 1010.9
20260505100000 56 97 2.0 7.0 0.00 0.00 0.00 54 1010.9
20260505095400 56 92 2.0 6.0 0.00 0.00 0.00 54 1010.9
20260505094500 56 96 4.0 6.0 0.00 0.00 0.00 54 1010.7
20260505093621 56 103 4.0 8.0 0.00 0.00 0.00 53 1010.9
20260505092700 54 109 3.0 8.0 0.00 0.00 0.00 51 1010.8
20260505091800 54 135 2.0 4.0 0.00 0.00 0.00 52 1010.9
20260505090900 54 135 0.0 4.0 0.00 0.00 0.00 53 1010.8
20260505090000 54 135 2.0 6.0 0.00 0.00 0.00 53 1010.9
20260505085400 55 135 3.0 6.0 0.00 0.00 0.00 54 1011.0
20260505084500 55 131 4.0 6.0 0.00 0.00 0.00 54 1010.9
20260505083600 55 123 5.0 7.0 0.00 0.00 0.00 54 1011.0
20260505082700 55 120 2.0 5.0 0.00 0.00 0.00 54 1011.0
20260505081800 55 119 2.0 7.0 0.00 0.00 0.00 55 1011.0
20260505080900 56 108 3.0 7.0 0.00 0.00 0.00 55 1011.0
20260505080000 56 98 3.0 6.0 0.00 0.00 0.00 56 1011.0
20260505075400 56 98 2.0 7.0 0.00 0.00 0.00 56 1011.1
20260505074500 56 97 5.0 11.0 0.00 0.00 0.00 57 1011.2
20260505073621 56 103 4.0 10.0 0.00 0.00 0.00 57 1011.2
20260505072721 56 96 5.0 12.0 0.00 0.00 0.00 58 1011.5
20260505071800 56 88 7.0 12.0 0.00 0.00 0.00 58 1011.5
20260505070900 56 83 7.0 12.0 0.00 0.00 0.00 58 1011.6
20260505070021 56 86 5.0 10.0 0.00 0.00 0.00 58 1011.7
20260505065400 57 87 7.0 11.0 0.00 0.00 0.00 58 1011.7
20260505063601 57 84 6.0 11.0 0.00 0.00 0.00 55 1011.7
20260505062701 57 122 7.0 13.0 0.00 0.00 0.00 54 1011.8
20260505061800 57 145 9.0 21.0 0.00 0.00 0.00 54 1011.8
20260505060900 57 121 15.0 15.0 0.00 0.00 0.00 55 1011.9
20260505060001 57 128 7.0 15.0 0.00 0.00 0.00 55 1012.0
20260505055400 57 132 7.0 13.0 0.00 0.00 0.00 55 1012.1
20260505054501 57 149 10.0 20.0 0.00 0.00 0.00 56 1012.0
20260505053621 57 160 11.0 20.0 0.00 0.00 0.00 56 1011.8
20260505052701 57 151 8.0 24.0 0.00 0.00 0.00 56 1011.7
20260505051800 57 167 8.0 24.0 0.00 0.00 0.00 57 1011.7
20260505050900 57 179 12.0 24.0 0.00 0.00 0.00 56 1011.6